START_TIME,STEP,MOV.,AL01,t_acc.,AL02,t_acc.,E37,t_acc.,H21,t_acc.
1989-08-24T15:00:35.170 ,0,0,0.,24.0,0.,24.0,0.,24.0,0.,24.0
1989-08-24T15:00:59.170 ,0,1,0.,24.0,0.,24.0,0.,24.0,0.,24.0
1989-08-24T15:01:23.170 ,0,0,0.,24.0,0.,24.0,0.,24.0,0.,24.0
1989-08-24T15:01:47.170 ,1,1,0.,24.0,0.,24.0,0.,24.0,0.,24.0
1989-08-24T15:02:11.170 ,1,0,0.,24.0,0.,24.0,0.,24.0,0.,24.0
1989-08-24T15:02:35.170 ,2,1,0.,24.0,1.,24.0,0.,24.0,0.,24.0
1989-08-24T15:02:59.170 ,2,0,0.,24.0,0.,24.0,0.,24.0,0.,24.0
1989-08-24T15:03:23.170 ,3,1,0.,24.0,0.,24.0,0.,24.0,0.,24.0
1989-08-24T15:03:47.170 ,3,0,0.,24.0,0.,24.0,0.,24.0,0.,24.0
1989-08-24T15:04:11.170 ,4,1,0.,24.0,0.,24.0,0.,24.0,0.,24.0
1989-08-24T15:04:35.170 ,4,0,0.,24.0,0.,24.0,0.,24.0,0.,24.0
1989-08-24T15:04:59.170 ,5,1,0.,24.0,0.,24.0,0.,24.0,0.,24.0
1989-08-24T15:05:23.170 ,5,0,0.,24.0,0.,24.0,0.,24.0,0.,24.0
1989-08-24T15:05:47.170 ,6,1,0.,24.0,0.,24.0,0.,24.0,0.,24.0
1989-08-24T15:06:11.170 ,6,0,0.,24.0,0.,24.0,0.,24.0,0.,24.0
1989-08-24T15:06:35.170 ,7,1,14.,24.0,0.,24.0,0.,24.0,0.,24.0
1989-08-24T15:06:59.170 ,7,0,33.,24.0,0.,24.0,0.,24.0,0.,24.0
1989-08-24T15:07:23.170 ,7,1,32.,24.0,0.,24.0,0.,24.0,0.,24.0
1989-08-24T15:07:47.170 ,7,0,29.,24.0,0.,24.0,0.,24.0,0.,24.0
1989-08-24T15:08:11.170 ,6,1,18.,24.0,0.,24.0,0.,24.0,0.,24.0
1989-08-24T15:08:35.170 ,6,0,0.,24.0,1.,24.0,0.,24.0,0.,24.0
1989-08-24T15:08:59.170 ,5,1,0.,24.0,1.,24.0,0.,24.0,0.,24.0
1989-08-24T15:09:23.170 ,5,0,0.,24.0,0.,24.0,0.,24.0,0.,24.0
1989-08-24T15:09:47.170 ,0,0,0.,24.0,0.,24.0,0.,24.0,0.,24.0
1989-08-24T15:10:11.170 ,0,0,0.,24.0,0.,24.0,0.,24.0,0.,24.0
1989-08-24T15:10:35.170 ,3,1,0.,24.0,0.,24.0,0.,24.0,0.,24.0
1989-08-24T15:10:59.170 ,3,0,0.,24.0,1.,24.0,0.,24.0,0.,24.0
1989-08-24T15:11:23.170 ,2,1,0.,24.0,0.,24.0,0.,24.0,0.,24.0
1989-08-24T15:11:47.170 ,2,0,0.,24.0,0.,24.0,0.,24.0,0.,24.0
1989-08-24T15:12:11.170 ,1,1,0.,24.0,0.,24.0,0.,24.0,0.,24.0
1989-08-24T15:12:35.170 ,1,0,0.,24.0,0.,24.0,0.,24.0,0.,24.0
1989-08-24T15:12:59.170 ,0,1,0.,24.0,0.,24.0,0.,24.0,0.,24.0
1989-08-24T15:13:23.170 ,0,0,0.,24.0,0.,24.0,0.,24.0,0.,24.0
1989-08-24T15:13:47.170 ,0,1,0.,24.0,0.,24.0,0.,24.0,0.,24.0
1989-08-24T15:14:11.170 ,0,0,0.,24.0,0.,24.0,0.,24.0,0.,24.0
1989-08-24T15:14:35.170 ,1,1,0.,24.0,0.,24.0,0.,24.0,0.,24.0
1989-08-24T15:14:59.170 ,1,0,0.,24.0,0.,24.0,0.,24.0,0.,24.0
1989-08-24T15:15:23.170 ,2,1,0.,24.0,0.,24.0,0.,24.0,0.,24.0
1989-08-24T15:15:47.170 ,2,0,0.,24.0,0.,24.0,0.,24.0,0.,24.0
1989-08-24T15:16:11.170 ,3,1,0.,24.0,0.,24.0,0.,24.0,0.,24.0
1989-08-24T15:16:35.170 ,3,0,0.,24.0,1.,24.0,0.,24.0,0.,24.0
1989-08-24T15:16:59.170 ,4,1,0.,24.0,0.,24.0,0.,24.0,0.,24.0
1989-08-24T15:17:23.170 ,4,0,0.,24.0,0.,24.0,0.,24.0,0.,24.0
1989-08-24T15:17:47.170 ,5,1,0.,24.0,1.,24.0,0.,24.0,0.,24.0
1989-08-24T15:18:11.170 ,5,0,0.,24.0,0.,24.0,0.,24.0,0.,24.0
1989-08-24T15:18:35.170 ,6,1,0.,24.0,0.,24.0,0.,24.0,0.,24.0
1989-08-24T15:18:59.170 ,6,0,0.,24.0,0.,24.0,0.,24.0,0.,24.0
1989-08-24T15:19:23.170 ,7,1,10.,24.0,0.,24.0,0.,24.0,0.,24.0
1989-08-24T15:19:47.170 ,7,0,18.,24.0,0.,24.0,0.,24.0,0.,24.0
1989-08-24T15:20:11.170 ,7,1,29.,24.0,0.,24.0,0.,24.0,0.,24.0
1989-08-24T15:20:35.170 ,7,0,29.,24.0,0.,24.0,0.,24.0,0.,24.0
1989-08-24T15:20:59.170 ,6,1,13.,24.0,0.,24.0,0.,24.0,0.,24.0
1989-08-24T15:21:23.170 ,6,0,0.,24.0,0.,24.0,0.,24.0,0.,24.0
1989-08-24T15:21:47.170 ,5,1,0.,24.0,0.,24.0,0.,24.0,0.,24.0
1989-08-24T15:22:11.170 ,5,0,0.,24.0,0.,24.0,0.,24.0,0.,24.0
1989-08-24T15:22:35.170 ,4,1,0.,24.0,0.,24.0,0.,24.0,0.,24.0
1989-08-24T15:22:59.170 ,4,0,0.,24.0,0.,24.0,0.,24.0,0.,24.0
1989-08-24T15:23:23.170 ,3,1,0.,24.0,0.,24.0,0.,24.0,0.,24.0
1989-08-24T15:23:47.170 ,3,0,0.,24.0,0.,24.0,0.,24.0,0.,24.0
1989-08-24T15:24:11.170 ,2,1,0.,24.0,0.,24.0,0.,24.0,0.,24.0
1989-08-24T15:24:35.170 ,2,0,0.,24.0,0.,24.0,0.,24.0,0.,24.0
1989-08-24T15:24:59.170 ,1,1,0.,24.0,0.,24.0,0.,24.0,0.,24.0
1989-08-24T15:25:23.170 ,1,0,0.,24.0,0.,24.0,0.,24.0,0.,24.0
1989-08-24T15:25:47.170 ,0,1,0.,24.0,0.,24.0,0.,24.0,0.,24.0
1989-08-24T15:26:11.170 ,0,0,0.,24.0,0.,24.0,0.,24.0,0.,24.0
1989-08-24T15:26:35.170 ,0,1,0.,24.0,0.,24.0,0.,24.0,0.,24.0
1989-08-24T15:26:59.170 ,0,0,0.,24.0,0.,24.0,0.,24.0,0.,24.0
1989-08-24T15:27:23.170 ,1,1,0.,24.0,0.,24.0,0.,24.0,0.,24.0
1989-08-24T15:27:47.170 ,1,0,0.,24.0,0.,24.0,0.,24.0,0.,24.0
1989-08-24T15:28:11.170 ,2,1,0.,24.0,0.,24.0,0.,24.0,0.,24.0
1989-08-24T15:28:35.170 ,2,0,0.,24.0,0.,24.0,0.,24.0,0.,24.0
1989-08-24T15:28:59.170 ,3,1,0.,24.0,0.,24.0,0.,24.0,0.,24.0
1989-08-24T15:29:23.170 ,3,0,0.,24.0,0.,24.0,0.,24.0,0.,24.0
1989-08-24T15:29:47.170 ,4,1,0.,24.0,0.,24.0,0.,24.0,0.,24.0
1989-08-24T15:30:11.170 ,4,0,0.,24.0,0.,24.0,0.,24.0,0.,24.0
1989-08-24T15:30:35.170 ,5,1,0.,24.0,0.,24.0,0.,24.0,0.,24.0
1989-08-24T15:30:59.170 ,5,0,0.,24.0,0.,24.0,0.,24.0,0.,24.0
1989-08-24T15:31:23.170 ,6,1,0.,24.0,0.,24.0,0.,24.0,0.,24.0
1989-08-24T15:31:47.170 ,6,0,0.,24.0,0.,24.0,0.,24.0,0.,24.0
1989-08-24T15:32:11.170 ,7,1,9.,24.0,0.,24.0,0.,24.0,0.,24.0
1989-08-24T15:32:35.170 ,7,0,43.,24.0,0.,24.0,0.,24.0,0.,24.0
1989-08-24T15:32:59.170 ,7,1,29.,24.0,0.,24.0,0.,24.0,0.,24.0
1989-08-24T15:33:23.170 ,7,0,35.,24.0,0.,24.0,0.,24.0,0.,24.0
1989-08-24T15:33:47.170 ,6,1,13.,24.0,0.,24.0,0.,24.0,0.,24.0
1989-08-24T15:34:11.170 ,6,0,0.,24.0,0.,24.0,0.,24.0,0.,24.0
1989-08-24T15:34:35.170 ,5,1,0.,24.0,0.,24.0,0.,24.0,0.,24.0
1989-08-24T15:34:59.170 ,5,0,0.,24.0,0.,24.0,0.,24.0,0.,24.0
1989-08-24T15:35:23.170 ,4,1,0.,24.0,0.,24.0,0.,24.0,0.,24.0
1989-08-24T15:35:47.170 ,4,0,0.,24.0,0.,24.0,0.,24.0,0.,24.0
1989-08-24T15:36:11.170 ,3,1,0.,24.0,0.,24.0,0.,24.0,0.,24.0
1989-08-24T15:36:35.170 ,3,0,0.,24.0,0.,24.0,0.,24.0,0.,24.0
1989-08-24T15:36:59.170 ,2,1,0.,24.0,0.,24.0,0.,24.0,0.,24.0
1989-08-24T15:37:23.170 ,2,0,0.,24.0,0.,24.0,0.,24.0,0.,24.0
1989-08-24T15:37:47.170 ,1,1,0.,24.0,0.,24.0,0.,24.0,0.,24.0
1989-08-24T15:38:11.170 ,1,0,0.,24.0,0.,24.0,0.,24.0,0.,24.0
1989-08-24T15:38:35.170 ,0,1,0.,24.0,0.,24.0,0.,24.0,0.,24.0
1989-08-24T15:38:59.170 ,0,0,1.,24.0,0.,24.0,0.,24.0,0.,24.0
1989-08-24T15:39:23.170 ,0,1,0.,24.0,0.,24.0,0.,24.0,0.,24.0
1989-08-24T15:39:47.170 ,0,0,0.,24.0,0.,24.0,0.,24.0,0.,24.0
1989-08-24T15:40:11.170 ,1,1,1.,24.0,0.,24.0,0.,24.0,0.,24.0
1989-08-24T15:40:35.170 ,0,0,0.,24.0,0.,24.0,0.,24.0,0.,24.0
1989-08-24T15:42:19.570 ,0,0,0.,24.0,0.,24.0,0.,24.0,0.,24.0
1989-08-24T15:42:35.170 ,4,1,0.,24.0,0.,24.0,0.,24.0,0.,24.0
1989-08-24T15:42:59.170 ,4,0,1.,24.0,0.,24.0,0.,24.0,0.,24.0
1989-08-24T15:43:23.170 ,5,1,0.,24.0,0.,24.0,0.,24.0,0.,24.0
1989-08-24T15:43:47.170 ,5,0,1.,24.0,0.,24.0,0.,24.0,0.,24.0
1989-08-24T15:44:11.170 ,6,1,0.,24.0,0.,24.0,0.,24.0,0.,24.0
1989-08-24T15:44:35.170 ,0,0,0.,24.0,0.,24.0,0.,24.0,0.,24.0
1989-08-24T15:47:51.370 ,0,0,0.,24.0,0.,24.0,0.,24.0,0.,24.0
1989-08-24T15:48:11.170 ,4,1,0.,24.0,0.,24.0,0.,24.0,0.,24.0
1989-08-24T15:48:35.170 ,4,0,0.,24.0,0.,24.0,0.,24.0,0.,24.0
1989-08-24T15:48:59.170 ,3,1,0.,24.0,0.,24.0,0.,24.0,0.,24.0
1989-08-24T15:49:23.170 ,3,0,0.,24.0,0.,24.0,0.,24.0,0.,24.0
1989-08-24T15:49:47.170 ,2,1,0.,24.0,0.,24.0,0.,24.0,0.,24.0
1989-08-24T15:50:11.170 ,2,0,0.,24.0,0.,24.0,0.,24.0,0.,24.0
1989-08-24T15:50:35.170 ,1,1,0.,24.0,1.,24.0,0.,24.0,0.,24.0
1989-08-24T15:50:59.170 ,1,0,0.,24.0,0.,24.0,0.,24.0,0.,24.0
1989-08-24T15:51:23.170 ,0,1,0.,24.0,0.,24.0,0.,24.0,0.,24.0
1989-08-24T15:51:47.170 ,0,0,0.,24.0,0.,24.0,0.,24.0,0.,24.0
1989-08-24T15:52:11.170 ,0,1,0.,24.0,0.,24.0,0.,24.0,0.,24.0
1989-08-24T15:52:35.170 ,0,0,0.,24.0,0.,24.0,0.,24.0,0.,24.0
1989-08-24T15:52:59.170 ,1,1,0.,24.0,0.,24.0,0.,24.0,0.,24.0
1989-08-24T15:53:23.170 ,1,0,0.,24.0,0.,24.0,0.,24.0,0.,24.0
1989-08-24T15:53:47.170 ,0,0,0.,24.0,0.,24.0,0.,24.0,0.,24.0
1989-08-24T15:54:11.170 ,7,0,7.,24.0,0.,24.0,0.,24.0,0.,24.0
1989-08-24T15:54:35.170 ,7,0,27.,24.0,0.,24.0,0.,24.0,0.,24.0
1989-08-24T15:54:59.170 ,7,0,34.,24.0,0.,24.0,0.,24.0,0.,24.0
1989-08-24T15:55:23.170 ,0,0,14.,24.0,0.,24.0,0.,24.0,0.,24.0
1989-08-24T15:55:47.170 ,0,0,0.,24.0,0.,24.0,0.,24.0,0.,24.0
1989-08-24T15:56:11.170 ,0,0,0.,24.0,0.,24.0,0.,24.0,0.,24.0
1989-08-24T15:56:35.170 ,6,0,0.,24.0,0.,24.0,0.,24.0,0.,24.0
1989-08-24T15:56:59.170 ,6,0,0.,24.0,0.,24.0,0.,24.0,0.,24.0
1989-08-24T15:57:23.170 ,6,0,0.,24.0,0.,24.0,0.,24.0,0.,24.0
1989-08-24T15:57:47.170 ,6,0,0.,24.0,1.,24.0,0.,24.0,0.,24.0
1989-08-24T15:58:11.170 ,6,0,0.,24.0,0.,24.0,0.,24.0,0.,24.0
1989-08-24T15:58:35.170 ,6,0,0.,24.0,0.,24.0,0.,24.0,0.,24.0
1989-08-24T15:58:59.170 ,6,0,0.,24.0,0.,24.0,0.,24.0,0.,24.0
1989-08-24T15:59:23.170 ,6,0,0.,24.0,0.,24.0,0.,24.0,0.,24.0
1989-08-24T15:59:47.170 ,6,0,0.,24.0,0.,24.0,0.,24.0,0.,24.0
1989-08-24T16:00:11.170 ,6,0,0.,24.0,0.,24.0,0.,24.0,0.,24.0
1989-08-24T16:00:35.170 ,6,0,0.,24.0,0.,24.0,0.,24.0,0.,24.0
1989-08-24T16:00:59.170 ,6,0,0.,24.0,0.,24.0,0.,24.0,0.,24.0
1989-08-24T16:01:23.170 ,6,0,0.,24.0,0.,24.0,0.,24.0,0.,24.0
1989-08-24T16:01:47.170 ,7,1,10.,24.0,0.,24.0,0.,24.0,0.,24.0
1989-08-24T16:02:11.170 ,3,1,0.,24.0,0.,24.0,0.,24.0,0.,24.0
1989-08-24T16:02:35.170 ,0,1,0.,24.0,0.,24.0,0.,24.0,0.,24.0
1989-08-24T16:02:59.170 ,0,0,,0,,0,,0,,0
1989-08-24T16:03:23.170 ,0,0,0.,24.0,0.,24.0,0.,24.0,0.,24.0
1989-08-24T16:03:47.170 ,0,0,0.,24.0,0.,24.0,0.,24.0,0.,24.0
1989-08-24T16:04:11.170 ,0,0,0.,24.0,0.,24.0,0.,24.0,0.,24.0
1989-08-24T16:04:35.170 ,0,0,0.,24.0,0.,24.0,0.,24.0,0.,24.0
1989-08-24T16:04:59.170 ,0,0,0.,24.0,0.,24.0,0.,24.0,0.,24.0
1989-08-24T16:05:23.170 ,0,0,1.,24.0,0.,24.0,0.,24.0,0.,24.0
1989-08-24T16:05:47.170 ,0,0,0.,24.0,0.,24.0,0.,24.0,0.,24.0
1989-08-24T16:06:11.170 ,0,0,0.,24.0,0.,24.0,0.,24.0,0.,24.0
1989-08-24T16:06:35.170 ,0,0,0.,24.0,0.,24.0,0.,24.0,0.,24.0
1989-08-24T16:06:59.170 ,0,0,0.,24.0,0.,24.0,0.,24.0,0.,24.0
1989-08-24T16:07:23.170 ,2,1,0.,24.0,0.,24.0,0.,24.0,0.,24.0
1989-08-24T16:07:47.170 ,6,1,0.,24.0,0.,24.0,0.,24.0,0.,24.0
1989-08-24T16:08:11.170 ,6,1,8.,24.0,0.,24.0,0.,24.0,0.,24.0
1989-08-24T16:08:35.170 ,6,0,0.,24.0,0.,24.0,0.,24.0,0.,24.0
1989-08-24T16:08:59.170 ,6,0,0.,24.0,0.,24.0,0.,24.0,0.,24.0
1989-08-24T16:09:23.170 ,6,0,0.,24.0,0.,24.0,0.,24.0,0.,24.0
1989-08-24T16:09:47.170 ,6,0,1.,24.0,0.,24.0,0.,24.0,0.,24.0
1989-08-24T16:10:11.170 ,6,0,1.,24.0,0.,24.0,0.,24.0,0.,24.0
1989-08-24T16:10:35.170 ,6,0,0.,24.0,0.,24.0,0.,24.0,0.,24.0
1989-08-24T16:10:59.170 ,6,0,0.,24.0,0.,24.0,0.,24.0,0.,24.0
1989-08-24T16:11:23.170 ,6,0,1.,24.0,0.,24.0,0.,24.0,0.,24.0
1989-08-24T16:11:47.170 ,6,0,0.,24.0,0.,24.0,0.,24.0,0.,24.0
1989-08-24T16:12:11.170 ,6,0,0.,24.0,0.,24.0,0.,24.0,0.,24.0
1989-08-24T16:12:35.170 ,6,0,0.,24.0,0.,24.0,0.,24.0,0.,24.0
1989-08-24T16:12:59.170 ,6,0,0.,24.0,0.,24.0,0.,24.0,0.,24.0
1989-08-24T16:13:23.170 ,6,0,0.,24.0,0.,24.0,0.,24.0,0.,24.0
1989-08-24T16:13:47.170 ,4,1,0.,24.0,0.,24.0,0.,24.0,0.,24.0
1989-08-24T16:14:11.170 ,0,1,0.,24.0,0.,24.0,0.,24.0,0.,24.0
1989-08-24T16:14:35.170 ,3,1,0.,24.0,0.,24.0,0.,24.0,0.,24.0
1989-08-24T16:14:59.170 ,6,1,0.,24.0,0.,24.0,0.,24.0,0.,24.0
1989-08-24T16:15:23.170 ,6,0,0.,24.0,0.,24.0,0.,24.0,0.,24.0
1989-08-24T16:15:47.170 ,6,0,0.,24.0,0.,24.0,0.,24.0,0.,24.0
1989-08-24T16:16:11.170 ,6,0,0.,24.0,0.,24.0,0.,24.0,0.,24.0
1989-08-24T16:16:35.170 ,6,0,0.,24.0,0.,24.0,0.,24.0,0.,24.0
1989-08-24T16:16:59.160 ,6,0,0.,24.0,0.,24.0,0.,24.0,0.,24.0
1989-08-24T16:17:23.170 ,6,0,0.,24.0,0.,24.0,0.,24.0,0.,24.0
1989-08-24T16:17:47.170 ,6,0,0.,24.0,0.,24.0,0.,24.0,0.,24.0
1989-08-24T16:18:11.170 ,6,0,0.,24.0,0.,24.0,0.,24.0,0.,24.0
1989-08-24T16:18:35.170 ,6,0,0.,24.0,0.,24.0,0.,24.0,0.,24.0
1989-08-24T16:18:59.170 ,6,0,0.,24.0,0.,24.0,0.,24.0,0.,24.0
1989-08-24T16:19:23.170 ,7,1,19.,24.0,0.,24.0,0.,24.0,0.,24.0
1989-08-24T16:19:47.170 ,3,1,0.,24.0,0.,24.0,0.,24.0,0.,24.0
1989-08-24T16:20:11.170 ,0,1,0.,24.0,0.,24.0,0.,24.0,0.,24.0
1989-08-24T16:20:35.170 ,0,0,0.,24.0,0.,24.0,0.,24.0,0.,24.0
1989-08-24T16:20:59.170 ,0,0,0.,24.0,0.,24.0,0.,24.0,0.,24.0
1989-08-24T16:21:23.170 ,0,0,0.,24.0,0.,24.0,0.,24.0,0.,24.0
1989-08-24T16:21:47.170 ,0,0,0.,24.0,0.,24.0,0.,24.0,0.,24.0
1989-08-24T16:22:11.170 ,0,0,0.,24.0,0.,24.0,0.,24.0,0.,24.0
1989-08-24T16:22:35.170 ,0,0,0.,24.0,1.,24.0,0.,24.0,0.,24.0
1989-08-24T16:22:59.170 ,0,0,0.,24.0,0.,24.0,0.,24.0,0.,24.0
1989-08-24T16:25:28.570 ,0,0,0.,24.0,0.,24.0,0.,24.0,0.,24.0
1989-08-24T16:25:47.170 ,2,1,0.,24.0,0.,24.0,0.,24.0,0.,24.0
1989-08-24T16:26:11.170 ,6,1,0.,24.0,0.,24.0,0.,24.0,0.,24.0
1989-08-24T16:26:35.170 ,6,1,17.,24.0,1.,24.0,0.,24.0,0.,24.0
1989-08-24T16:26:59.170 ,6,0,0.,24.0,0.,24.0,0.,24.0,0.,24.0
1989-08-24T16:27:23.170 ,6,0,0.,24.0,0.,24.0,0.,24.0,0.,24.0
1989-08-24T16:27:47.170 ,6,0,0.,24.0,0.,24.0,0.,24.0,0.,24.0
1989-08-24T16:28:11.170 ,6,0,0.,24.0,0.,24.0,0.,24.0,0.,24.0
1989-08-24T16:28:35.170 ,6,0,0.,24.0,0.,24.0,0.,24.0,0.,24.0
1989-08-24T16:28:59.170 ,6,0,0.,24.0,0.,24.0,0.,24.0,0.,24.0
1989-08-24T16:29:23.170 ,6,0,0.,24.0,0.,24.0,0.,24.0,0.,24.0
1989-08-24T16:29:47.160 ,6,0,0.,24.0,0.,24.0,0.,24.0,0.,24.0
1989-08-24T16:30:11.160 ,6,0,0.,24.0,0.,24.0,0.,24.0,0.,24.0
1989-08-24T16:30:35.160 ,6,0,0.,24.0,0.,24.0,0.,24.0,0.,24.0
1989-08-24T16:30:59.160 ,6,0,0.,24.0,0.,24.0,0.,24.0,0.,24.0
1989-08-24T16:31:23.160 ,4,1,0.,24.0,0.,24.0,0.,24.0,0.,24.0
1989-08-24T16:31:47.160 ,0,1,0.,24.0,0.,24.0,0.,24.0,0.,24.0
1989-08-24T16:32:11.160 ,3,1,0.,24.0,0.,24.0,0.,24.0,0.,24.0
1989-08-24T16:32:35.160 ,6,1,0.,24.0,0.,24.0,0.,24.0,0.,24.0
1989-08-24T16:32:59.160 ,6,0,0.,24.0,0.,24.0,0.,24.0,0.,24.0
1989-08-24T16:33:23.160 ,6,0,0.,24.0,0.,24.0,0.,24.0,0.,24.0
1989-08-24T16:33:47.160 ,6,0,0.,24.0,0.,24.0,0.,24.0,0.,24.0
1989-08-24T16:34:11.160 ,6,0,0.,24.0,0.,24.0,0.,24.0,0.,24.0
1989-08-24T16:34:35.160 ,6,0,0.,24.0,0.,24.0,0.,24.0,0.,24.0
1989-08-24T16:34:59.160 ,6,0,0.,24.0,0.,24.0,0.,24.0,0.,24.0
1989-08-24T16:35:23.160 ,6,0,0.,24.0,0.,24.0,0.,24.0,0.,24.0
1989-08-24T16:35:47.160 ,6,0,0.,24.0,0.,24.0,0.,24.0,0.,24.0
1989-08-24T16:36:11.160 ,6,0,0.,24.0,1.,24.0,0.,24.0,0.,24.0
1989-08-24T16:36:35.160 ,6,0,0.,24.0,0.,24.0,0.,24.0,0.,24.0
1989-08-24T16:36:59.160 ,6,0,0.,24.0,1.,24.0,0.,24.0,0.,24.0
1989-08-24T16:37:23.160 ,6,0,0.,24.0,0.,24.0,0.,24.0,0.,24.0
1989-08-24T16:37:47.160 ,7,1,18.,24.0,0.,24.0,0.,24.0,0.,24.0
1989-08-24T16:38:11.160 ,3,1,0.,24.0,0.,24.0,0.,24.0,0.,24.0
1989-08-24T16:38:35.160 ,0,1,0.,24.0,0.,24.0,0.,24.0,0.,24.0
1989-08-24T16:38:59.160 ,0,0,1.,24.0,0.,24.0,0.,24.0,0.,24.0
1989-08-24T16:39:23.160 ,0,0,0.,24.0,0.,24.0,0.,24.0,0.,24.0
1989-08-24T16:39:47.160 ,0,0,1.,24.0,0.,24.0,0.,24.0,0.,24.0
1989-08-24T16:40:11.160 ,0,0,0.,24.0,0.,24.0,0.,24.0,0.,24.0
1989-08-24T16:40:35.160 ,0,0,0.,24.0,0.,24.0,0.,24.0,0.,24.0
1989-08-24T16:40:59.160 ,0,0,0.,24.0,0.,24.0,0.,24.0,0.,24.0
1989-08-24T16:41:23.160 ,0,0,0.,24.0,1.,24.0,0.,24.0,0.,24.0
1989-08-24T16:41:47.160 ,0,0,0.,24.0,0.,24.0,0.,24.0,0.,24.0
1989-08-24T16:42:11.160 ,0,0,0.,24.0,0.,24.0,0.,24.0,0.,24.0
1989-08-24T16:42:35.160 ,0,0,0.,24.0,0.,24.0,0.,24.0,0.,24.0
1989-08-24T16:42:59.160 ,0,0,0.,24.0,0.,24.0,0.,24.0,0.,24.0
1989-08-24T16:43:23.160 ,2,1,0.,24.0,0.,24.0,0.,24.0,0.,24.0
1989-08-24T16:43:47.160 ,6,1,1.,24.0,0.,24.0,0.,24.0,0.,24.0
1989-08-24T16:44:11.160 ,6,1,6.,24.0,0.,24.0,0.,24.0,0.,24.0
1989-08-24T16:44:35.160 ,6,0,0.,24.0,0.,24.0,0.,24.0,0.,24.0
1989-08-24T16:44:59.160 ,6,0,0.,24.0,0.,24.0,0.,24.0,0.,24.0
1989-08-24T16:45:23.160 ,6,0,0.,24.0,0.,24.0,0.,24.0,0.,24.0
1989-08-24T16:45:47.160 ,6,0,0.,24.0,0.,24.0,0.,24.0,0.,24.0
1989-08-24T16:46:11.160 ,6,0,0.,24.0,0.,24.0,0.,24.0,0.,24.0
1989-08-24T16:46:35.160 ,6,0,0.,24.0,0.,24.0,0.,24.0,0.,24.0
1989-08-24T16:46:59.160 ,6,0,0.,24.0,1.,24.0,0.,24.0,0.,24.0
1989-08-24T16:47:23.160 ,6,0,0.,24.0,0.,24.0,0.,24.0,0.,24.0
1989-08-24T16:47:47.160 ,6,0,0.,24.0,0.,24.0,0.,24.0,0.,24.0
1989-08-24T16:48:11.160 ,6,0,0.,24.0,0.,24.0,0.,24.0,0.,24.0
1989-08-24T16:48:35.160 ,6,0,0.,24.0,0.,24.0,0.,24.0,0.,24.0
1989-08-24T16:48:59.160 ,6,0,0.,24.0,0.,24.0,0.,24.0,0.,24.0
1989-08-24T16:49:23.160 ,6,0,0.,24.0,0.,24.0,0.,24.0,0.,24.0
1989-08-24T16:49:47.160 ,4,1,0.,24.0,0.,24.0,0.,24.0,0.,24.0
1989-08-24T16:50:11.160 ,0,1,0.,24.0,0.,24.0,0.,24.0,0.,24.0
1989-08-24T16:50:35.160 ,3,1,0.,24.0,0.,24.0,0.,24.0,0.,24.0
1989-08-24T16:50:59.160 ,6,1,0.,24.0,0.,24.0,0.,24.0,0.,24.0
1989-08-24T16:51:23.160 ,6,0,0.,24.0,0.,24.0,0.,24.0,0.,24.0
1989-08-24T16:51:47.160 ,6,0,0.,24.0,0.,24.0,0.,24.0,0.,24.0
1989-08-24T16:52:11.160 ,6,0,0.,24.0,0.,24.0,0.,24.0,0.,24.0
1989-08-24T16:52:35.160 ,6,0,0.,24.0,0.,24.0,0.,24.0,0.,24.0
1989-08-24T16:52:59.160 ,6,0,0.,24.0,0.,24.0,0.,24.0,0.,24.0
1989-08-24T16:53:23.160 ,6,0,0.,24.0,0.,24.0,0.,24.0,0.,24.0
1989-08-24T16:53:47.160 ,6,0,0.,24.0,0.,24.0,0.,24.0,0.,24.0
1989-08-24T16:54:11.160 ,6,0,0.,24.0,0.,24.0,0.,24.0,0.,24.0
1989-08-24T16:54:35.160 ,6,0,0.,24.0,0.,24.0,0.,24.0,0.,24.0
1989-08-24T16:54:59.160 ,6,0,0.,24.0,0.,24.0,0.,24.0,0.,24.0
1989-08-24T16:55:23.160 ,7,1,13.,24.0,0.,24.0,0.,24.0,0.,24.0
1989-08-24T16:55:47.160 ,3,1,1.,24.0,0.,24.0,0.,24.0,0.,24.0
1989-08-24T16:56:11.160 ,0,1,0.,24.0,0.,24.0,0.,24.0,0.,24.0
1989-08-24T16:56:35.160 ,0,0,1.,24.0,0.,24.0,0.,24.0,0.,24.0
1989-08-24T16:56:59.160 ,0,0,0.,24.0,0.,24.0,0.,24.0,0.,24.0
1989-08-24T16:57:23.160 ,0,0,0.,24.0,0.,24.0,0.,24.0,0.,24.0
1989-08-24T16:57:47.160 ,0,0,0.,24.0,0.,24.0,0.,24.0,0.,24.0
1989-08-24T16:58:11.160 ,0,0,0.,24.0,0.,24.0,0.,24.0,0.,24.0
1989-08-24T16:58:35.160 ,0,0,0.,24.0,0.,24.0,0.,24.0,0.,24.0
1989-08-24T16:58:59.160 ,0,0,0.,24.0,0.,24.0,0.,24.0,0.,24.0
1989-08-24T16:59:23.160 ,0,0,0.,24.0,0.,24.0,0.,24.0,0.,24.0
1989-08-24T16:59:47.160 ,0,0,0.,24.0,0.,24.0,0.,24.0,0.,24.0
1989-08-24T17:00:11.160 ,0,0,0.,24.0,0.,24.0,0.,24.0,0.,24.0
1989-08-24T17:00:35.160 ,0,0,0.,24.0,1.,24.0,0.,24.0,0.,24.0
1989-08-24T17:00:59.160 ,0,0,0.,24.0,0.,24.0,0.,24.0,0.,24.0
1989-08-24T17:01:23.160 ,0,0,0.,24.0,0.,24.0,0.,24.0,0.,24.0
1989-08-24T17:01:47.160 ,2,1,0.,24.0,0.,24.0,0.,24.0,0.,24.0
1989-08-24T17:02:11.160 ,6,1,0.,24.0,0.,24.0,0.,24.0,0.,24.0
1989-08-24T17:02:35.160 ,6,1,14.,24.0,0.,24.0,0.,24.0,0.,24.0
1989-08-24T17:02:59.160 ,6,0,0.,24.0,0.,24.0,0.,24.0,0.,24.0
1989-08-24T17:03:23.160 ,6,0,0.,24.0,0.,24.0,0.,24.0,0.,24.0
1989-08-24T17:03:47.160 ,6,0,0.,24.0,0.,24.0,0.,24.0,0.,24.0
1989-08-24T17:04:11.160 ,6,0,0.,24.0,0.,24.0,0.,24.0,0.,24.0
1989-08-24T17:04:35.160 ,6,0,0.,24.0,0.,24.0,0.,24.0,0.,24.0
1989-08-24T17:04:59.160 ,6,0,0.,24.0,0.,24.0,0.,24.0,0.,24.0
1989-08-24T17:05:23.160 ,6,0,0.,24.0,0.,24.0,0.,24.0,0.,24.0
1989-08-24T17:05:47.160 ,6,0,0.,24.0,0.,24.0,0.,24.0,0.,24.0
1989-08-24T17:06:11.160 ,6,0,0.,24.0,0.,24.0,0.,24.0,0.,24.0
1989-08-24T17:06:35.160 ,6,0,0.,24.0,0.,24.0,0.,24.0,0.,24.0
1989-08-24T17:06:59.160 ,6,0,0.,24.0,0.,24.0,0.,24.0,0.,24.0
1989-08-24T17:07:23.160 ,4,1,0.,24.0,0.,24.0,0.,24.0,0.,24.0
1989-08-24T17:07:47.160 ,0,1,0.,24.0,0.,24.0,0.,24.0,0.,24.0
1989-08-24T17:08:11.160 ,3,1,0.,24.0,0.,24.0,0.,24.0,0.,24.0
1989-08-24T17:08:35.160 ,6,1,0.,24.0,0.,24.0,0.,24.0,0.,24.0
1989-08-24T17:08:59.160 ,6,0,1.,24.0,0.,24.0,0.,24.0,0.,24.0
1989-08-24T17:09:23.160 ,6,0,0.,24.0,0.,24.0,0.,24.0,0.,24.0
1989-08-24T17:09:47.160 ,6,0,0.,24.0,0.,24.0,0.,24.0,0.,24.0
1989-08-24T17:10:11.160 ,6,0,0.,24.0,0.,24.0,0.,24.0,0.,24.0
1989-08-24T17:10:35.160 ,6,0,0.,24.0,0.,24.0,0.,24.0,0.,24.0
1989-08-24T17:10:59.160 ,6,0,0.,24.0,0.,24.0,0.,24.0,0.,24.0
1989-08-24T17:11:23.160 ,6,0,0.,24.0,0.,24.0,0.,24.0,0.,24.0
1989-08-24T17:11:47.160 ,6,0,0.,24.0,0.,24.0,0.,24.0,0.,24.0
1989-08-24T17:12:11.160 ,6,0,0.,24.0,0.,24.0,0.,24.0,0.,24.0
1989-08-24T17:12:35.160 ,6,0,0.,24.0,0.,24.0,0.,24.0,0.,24.0
1989-08-24T17:12:59.160 ,6,0,0.,24.0,0.,24.0,0.,24.0,0.,24.0
1989-08-24T17:13:23.160 ,6,0,0.,24.0,0.,24.0,0.,24.0,0.,24.0
1989-08-24T17:13:47.160 ,7,1,16.,24.0,0.,24.0,0.,24.0,0.,24.0
1989-08-24T17:14:11.160 ,3,1,1.,24.0,0.,24.0,0.,24.0,0.,24.0
1989-08-24T17:14:35.160 ,0,1,0.,24.0,0.,24.0,0.,24.0,0.,24.0
1989-08-24T17:14:59.160 ,0,0,1.,24.0,0.,24.0,0.,24.0,0.,24.0
1989-08-24T17:15:23.160 ,0,0,0.,24.0,0.,24.0,0.,24.0,0.,24.0
1989-08-24T17:15:47.160 ,0,0,0.,24.0,0.,24.0,0.,24.0,0.,24.0
1989-08-24T17:16:11.160 ,0,0,0.,24.0,0.,24.0,0.,24.0,0.,24.0
1989-08-24T17:16:35.160 ,0,0,0.,24.0,0.,24.0,0.,24.0,0.,24.0
1989-08-24T17:16:59.160 ,0,0,0.,24.0,0.,24.0,0.,24.0,0.,24.0
1989-08-24T17:17:23.160 ,0,0,0.,24.0,0.,24.0,0.,24.0,0.,24.0
1989-08-24T17:17:47.160 ,0,0,0.,24.0,0.,24.0,0.,24.0,0.,24.0
1989-08-24T17:18:11.160 ,0,0,0.,24.0,0.,24.0,0.,24.0,0.,24.0
1989-08-24T17:18:35.160 ,0,0,0.,24.0,0.,24.0,0.,24.0,0.,24.0
1989-08-24T17:18:59.160 ,0,0,0.,24.0,0.,24.0,0.,24.0,0.,24.0
1989-08-24T17:19:23.160 ,2,1,0.,24.0,0.,24.0,0.,24.0,0.,24.0
1989-08-24T17:19:47.160 ,6,1,0.,24.0,0.,24.0,0.,24.0,0.,24.0
1989-08-24T17:20:11.160 ,6,1,15.,24.0,0.,24.0,0.,24.0,0.,24.0
1989-08-24T17:20:35.160 ,6,0,0.,24.0,0.,24.0,0.,24.0,0.,24.0
1989-08-24T17:20:59.160 ,6,0,0.,24.0,0.,24.0,0.,24.0,0.,24.0
1989-08-24T17:21:23.160 ,6,0,0.,24.0,0.,24.0,0.,24.0,0.,24.0
1989-08-24T17:21:47.160 ,6,0,0.,24.0,0.,24.0,0.,24.0,0.,24.0
1989-08-24T17:22:11.160 ,6,0,1.,24.0,1.,24.0,0.,24.0,0.,24.0
1989-08-24T17:22:35.160 ,6,0,0.,24.0,0.,24.0,0.,24.0,0.,24.0
1989-08-24T17:22:59.160 ,6,0,0.,24.0,0.,24.0,0.,24.0,0.,24.0
1989-08-24T17:23:23.160 ,6,0,0.,24.0,0.,24.0,0.,24.0,0.,24.0
1989-08-24T17:23:47.160 ,6,0,0.,24.0,0.,24.0,0.,24.0,0.,24.0
1989-08-24T17:24:11.160 ,6,0,0.,24.0,0.,24.0,0.,24.0,0.,24.0
1989-08-24T17:24:35.160 ,6,0,0.,24.0,1.,24.0,0.,24.0,0.,24.0
1989-08-24T17:24:59.160 ,6,0,1.,24.0,0.,24.0,0.,24.0,0.,24.0
1989-08-24T17:25:23.160 ,6,0,0.,24.0,0.,24.0,0.,24.0,0.,24.0
1989-08-24T17:25:47.160 ,4,1,0.,24.0,0.,24.0,0.,24.0,0.,24.0
1989-08-24T17:26:11.160 ,0,1,0.,24.0,0.,24.0,0.,24.0,0.,24.0
1989-08-24T17:26:35.160 ,3,1,0.,24.0,0.,24.0,0.,24.0,0.,24.0
1989-08-24T17:26:59.160 ,6,1,0.,24.0,0.,24.0,0.,24.0,0.,24.0
1989-08-24T17:27:23.160 ,6,0,0.,24.0,0.,24.0,0.,24.0,0.,24.0
1989-08-24T17:27:47.160 ,6,0,0.,24.0,0.,24.0,0.,24.0,0.,24.0
1989-08-24T17:28:11.160 ,6,0,0.,24.0,0.,24.0,0.,24.0,0.,24.0
1989-08-24T17:28:35.160 ,6,0,0.,24.0,0.,24.0,0.,24.0,0.,24.0
1989-08-24T17:28:59.160 ,6,0,0.,24.0,0.,24.0,0.,24.0,0.,24.0
1989-08-24T17:29:23.160 ,6,0,0.,24.0,0.,24.0,0.,24.0,0.,24.0
1989-08-24T17:29:47.160 ,6,0,0.,24.0,0.,24.0,0.,24.0,0.,24.0
1989-08-24T17:30:11.160 ,6,0,0.,24.0,0.,24.0,0.,24.0,0.,24.0
1989-08-24T17:30:35.160 ,6,0,0.,24.0,0.,24.0,0.,24.0,0.,24.0
1989-08-24T17:30:59.160 ,6,0,0.,24.0,0.,24.0,0.,24.0,0.,24.0
1989-08-24T17:31:23.160 ,7,1,10.,24.0,0.,24.0,0.,24.0,0.,24.0
1989-08-24T17:31:47.160 ,3,1,1.,24.0,0.,24.0,0.,24.0,0.,24.0
1989-08-24T17:32:11.160 ,0,1,0.,24.0,0.,24.0,0.,24.0,0.,24.0
1989-08-24T17:32:35.160 ,0,0,0.,24.0,0.,24.0,0.,24.0,0.,24.0
1989-08-24T17:32:59.160 ,0,0,0.,24.0,0.,24.0,0.,24.0,0.,24.0
1989-08-24T17:33:23.160 ,0,0,0.,24.0,0.,24.0,0.,24.0,0.,24.0
1989-08-24T17:33:47.160 ,0,0,0.,24.0,0.,24.0,0.,24.0,0.,24.0
1989-08-24T17:34:11.160 ,0,0,0.,24.0,0.,24.0,0.,24.0,0.,24.0
1989-08-24T17:34:35.160 ,0,0,0.,24.0,0.,24.0,0.,24.0,0.,24.0
1989-08-24T17:34:59.160 ,0,0,0.,24.0,0.,24.0,0.,24.0,0.,24.0
1989-08-24T17:35:23.160 ,0,0,1.,24.0,0.,24.0,0.,24.0,0.,24.0
1989-08-24T17:35:47.160 ,0,0,0.,24.0,0.,24.0,0.,24.0,0.,24.0
1989-08-24T17:36:11.160 ,0,0,0.,24.0,0.,24.0,0.,24.0,0.,24.0
1989-08-24T17:36:35.160 ,0,0,0.,24.0,0.,24.0,0.,24.0,0.,24.0
1989-08-24T17:36:59.160 ,0,0,0.,24.0,0.,24.0,0.,24.0,0.,24.0
1989-08-24T17:37:23.160 ,0,0,0.,24.0,0.,24.0,0.,24.0,0.,24.0
1989-08-24T17:37:47.160 ,2,1,0.,24.0,0.,24.0,0.,24.0,0.,24.0
1989-08-24T17:38:11.160 ,6,1,0.,24.0,0.,24.0,0.,24.0,0.,24.0
1989-08-24T17:38:35.160 ,6,1,16.,24.0,0.,24.0,0.,24.0,0.,24.0
1989-08-24T17:38:59.160 ,6,0,0.,24.0,0.,24.0,0.,24.0,0.,24.0
1989-08-24T17:39:23.160 ,0,0,0.,24.0,0.,24.0,0.,24.0,0.,24.0
1989-08-24T17:39:47.160 ,6,0,0.,24.0,0.,24.0,0.,24.0,0.,24.0
1989-08-24T17:40:11.160 ,6,0,0.,24.0,0.,24.0,0.,24.0,0.,24.0
1989-08-24T17:40:35.160 ,6,0,,0,,0,,0,,0